Simultaneous Nadir Overpasses (SNOs) Predictions

Prediction of SNOs near US between AQUA and NPP Satellite Orbit:

Table of predicted SNOs near US for the next 10.0 days since TLE Epoch: 2/16/2018
Index Date (AQUA) Time (AQUA) AQUA Lat,Lon Date (NPP) Time (NPP) NPP Lat,Lon Distance(km) Time Diff (sec)
1 02/17/2018 19:06:53 49.95, -92.55 02/17/2018 19:00:52 49.61, -94.34 133.68 361
2 02/17/2018 20:45:47 50.00,-117.29 02/17/2018 20:42:21 49.56,-119.69 178.84 206
3 02/23/2018 07:19:21 49.89, -75.96 02/23/2018 07:19:48 50.33, -78.12 161.48 27
4 02/23/2018 08:58:14 49.90,-100.68 02/23/2018 09:01:16 50.43,-103.45 205.94 182
5 02/25/2018 18:17:32 49.98, -80.20 02/25/2018 18:10:03 49.71, -81.67 109.34 449
6 02/25/2018 19:56:25 49.97,-104.92 02/25/2018 19:51:31 49.61,-107.00 154.56 294
7 02/25/2018 21:31:35 36.67,-125.00 02/25/2018 21:29:09 36.18,-127.48 228.64 146




NCC Satellite Simultaneous Nadir Overpasses (SNOs) Prediction Service
